EW4713 Weather Reports


time (UTC)temp
C
wind
direction
speed
KPH
gust
KPH
rain 1hr
cm
rain 24hr
cm
rain mn
cm
humidity
%
barometer
mb
20260505102208 -1 159 4.8 8.0 0.00 0.00 0.00 80 1007.8
20260505101711 -1 121 3.2 8.0 0.00 0.00 0.00 80 1007.8
20260505101209 -1 114 0.0 8.0 0.00 0.00 0.00 80 1007.9
20260505100704 -1 119 6.4 6.4 0.00 0.00 0.00 81 1007.8
20260505100201 -1 157 1.6 8.0 0.00 0.00 0.00 81 1008.1
20260505095704 -1 75 0.0 12.9 0.00 0.00 0.00 81 1007.8
20260505095203 -1 102 3.2 12.9 0.00 0.00 0.00 81 1007.8
20260505094703 -1 108 6.4 8.0 0.00 0.00 0.00 81 1007.9
20260505093703 -1 151 1.6 9.7 0.00 0.00 0.00 80 1007.7
20260505093203 -1 70 4.8 8.0 0.00 0.00 0.00 81 1007.9
20260505092704 -1 108 3.2 8.0 0.00 0.00 0.00 81 1007.6
20260505091703 -1 99 3.2 8.0 0.00 0.00 0.00 81 1008.0
20260505091204 -1 103 3.2 8.0 0.00 0.00 0.00 81 1007.8
20260505090705 -1 151 3.2 6.4 0.00 0.00 0.00 81 1007.4
20260505090206 -1 120 4.8 6.4 0.00 0.00 0.00 81 1007.7
20260505085705 -1 117 3.2 6.4 0.00 0.00 0.00 81 1007.7
20260505085203 -1 158 6.4 6.4 0.00 0.00 0.00 80 1007.5
20260505084204 -1 105 3.2 6.4 0.00 0.00 0.00 81 1007.7
20260505083706 -1 135 4.8 8.0 0.00 0.00 0.00 81 1007.4
20260505082706 -1 112 0.0 12.9 0.00 0.00 0.00 81 1007.6
20260505082156 -1 126 1.6 12.9 0.00 0.00 0.00 81 1007.4
20260505081653 -1 161 4.8 8.0 0.00 0.00 0.00 81 1007.6
20260505081154 -1 90 0.0 8.0 0.00 0.00 0.00 82 1007.5
20260505080145 -1 103 1.6 8.0 0.00 0.00 0.00 81 1007.4
20260505075648 -1 120 1.6 8.0 0.00 0.00 0.00 82 1007.2
20260505075140 -1 96 1.6 11.3 0.00 0.00 0.00 82 1007.4
20260505074637 -1 148 0.0 11.3 0.00 0.00 0.00 83 1007.3
20260505074136 -1 180 4.8 9.7 0.00 0.00 0.00 82 1007.2
20260505073637 -1 105 0.0 9.7 0.00 0.00 0.00 83 1007.2
20260505073136 -1 90 4.8 6.4 0.00 0.00 0.00 84 1007.3
20260505072638 -1 144 3.2 6.4 0.00 0.00 0.00 85 1007.2
20260505072135 -2 98 0.0 6.4 0.00 0.00 0.00 86 1007.1
20260505071635 -2 95 3.2 6.4 0.00 0.00 0.00 86 1007.2
20260505070635 -2 90 3.2 4.8 0.00 0.00 0.00 85 1007.0
20260505070135 -1 90 0.0 6.4 0.00 0.00 0.00 85 1007.2
20260505065137 -1 96 6.4 6.4 0.00 0.00 0.00 85 1007.3
20260505064636 -1 103 0.0 4.8 0.00 0.00 0.00 85 1007.2
20260505064135 -1 114 1.6 4.8 0.00 0.00 0.00 84 1007.3
20260505063632 -1 83 1.6 4.8 0.00 0.00 0.00 83 1007.3
20260505063130 -1 105 0.0 6.4 0.00 0.00 0.00 82 1007.3
20260505062631 -1 160 3.2 6.4 0.00 0.00 0.00 82 1007.4
20260505062129 -1 100 3.2 4.8 0.00 0.00 0.00 82 1007.2
20260505061629 -1 117 3.2 8.0 0.00 0.00 0.00 81 1007.1
20260505061129 -1 90 1.6 11.3 0.00 0.00 0.00 81 1007.2
20260505060629 -1 117 1.6 11.3 0.00 0.00 0.00 81 1007.2
20260505060129 0 104 6.4 8.0 0.00 0.00 0.00 80 1007.2
20260505055631 0 117 0.0 9.7 0.00 0.00 0.00 79 1007.2
20260505055131 0 146 3.2 9.7 0.00 0.00 0.00 80 1007.2
20260505054632 0 105 1.6 6.4 0.00 0.00 0.00 82 1007.4
20260505053130 -1 117 1.6 8.0 0.00 0.00 0.00 83 1007.3
20260505052629 0 124 3.2 6.4 0.00 0.00 0.00 83 1007.4
20260505052129 -1 95 3.2 4.8 0.00 0.00 0.00 83 1007.2
20260505051630 -1 139 3.2 4.8 0.00 0.00 0.00 83 1007.1
20260505051129 0 96 1.6 9.7 0.00 0.00 0.00 82 1007.0
20260505050629 0 101 3.2 9.7 0.00 0.00 0.00 81 1006.9
20260505050128 0 90 3.2 6.4 0.00 0.00 0.00 81 1007.0
20260505041631 0 103 3.2 9.7 0.00 0.00 0.00 76 1006.9
20260505040629 0 121 4.8 9.7 0.00 0.00 0.00 76 1006.7
20260505040130 0 158 4.8 9.7 0.00 0.00 0.00 76 1006.6
20260505035633 0 176 3.2 8.0 0.00 0.00 0.00 76 1006.7
20260505035132 0 142 4.8 8.0 0.00 0.00 0.00 76 1006.8
20260505034632 0 180 3.2 4.8 0.00 0.00 0.00 76 1006.4
20260505033128 1 155 4.8 8.0 0.00 0.00 0.00 73 1006.3
20260505032617 1 145 6.4 9.7 0.00 0.00 0.00 72 1006.5
20260505031617 1 163 4.8 9.7 0.00 0.00 0.00 71 1006.4
20260505031112 1 153 4.8 9.7 0.00 0.00 0.00 71 1006.6
20260505030613 1 168 1.6 9.7 0.00 0.00 0.00 70 1006.4
20260505030111 1 120 1.6 12.9 0.00 0.00 0.00 71 1006.5
20260505025606 1 187 1.6 12.9 0.00 0.00 0.00 71 1006.3
20260505025104 1 125 3.2 17.7 0.00 0.00 0.00 70 1006.3
20260505024603 2 153 6.4 17.7 0.00 0.00 0.00 69 1006.0
20260505024103 2 158 6.4 12.9 0.00 0.00 0.00 68 1006.1
20260505023603 2 121 6.4 12.9 0.00 0.00 0.00 67 1005.8
20260505023104 2 138 9.7 11.3 0.00 0.00 0.00 67 1005.6
20260505022604 2 143 3.2 9.7 0.00 0.00 0.00 67 1005.7
20260505022104 2 122 6.4 11.3 0.00 0.00 0.00 67 1005.6
20260505021603 2 180 1.6 11.3 0.00 0.00 0.00 67 1005.7
20260505021104 2 188 4.8 11.3 0.00 0.00 0.00 66 1005.5
20260505020604 2 164 6.4 8.0 0.00 0.00 0.00 65 1005.5
20260505020105 3 169 6.4 16.1 0.00 0.00 0.00 65 1005.3
20260505015602 3 178 4.8 16.1 0.00 0.00 0.00 65 1005.5
20260505015102 3 189 3.2 14.5 0.00 0.00 0.00 65 1005.1
20260505014601 3 90 1.6 14.5 0.00 0.00 0.00 64 1005.2
20260505013601 3 115 3.2 12.9 0.00 0.00 0.00 61 1004.8
20260505013100 4 82 6.4 11.3 0.00 0.00 0.00 59 1004.7
20260505012602 4 147 0.0 9.7 0.00 0.00 0.00 57 1004.5
20260505011601 4 124 3.2 17.7 0.00 0.00 0.00 56 1004.4
20260505011101 4 120 1.6 19.3 0.00 0.00 0.00 55 1004.2
20260505005101 5 141 6.4 14.5 0.00 0.00 0.00 52 1004.1
20260505004101 5 166 6.4 25.7 0.00 0.00 0.00 51 1004.1
20260505003602 5 122 11.3 19.3 0.00 0.00 0.00 51 1004.2
20260505003100 6 145 4.8 19.3 0.00 0.00 0.00 51 1004.2
20260505002601 5 142 9.7 17.7 0.00 0.00 0.00 51 1004.1
20260505002101 5 163 6.4 9.7 0.00 0.00 0.00 52 1003.9
20260505001601 6 165 4.8 11.3 0.00 0.00 0.00 51 1003.9
20260505001101 6 152 3.2 16.1 0.00 0.00 0.00 50 1003.5
20260505000601 6 131 4.8 16.1 0.00 0.00 0.00 53 1003.5
20260505000100 6 82 8.0 17.7 0.00 0.00 0.00 51 1003.6
20260504235602 6 115 8.0 17.7 0.00 0.00 0.00 51 1003.4
20260504234602 7 165 6.4 14.5 0.00 0.00 0.00 50 1003.5
20260504233101 6 151 8.0 20.9 0.00 0.00 0.00 51 1003.7
20260504232600 6 84 3.2 20.9 0.00 0.00 0.00 50 1003.7
20260504232100 7 101 20.9 20.9 0.00 0.00 0.00 49 1003.9
20260504231603 6 166 6.4 19.3 0.00 0.00 0.00 52 1003.5
20260504231112 6 134 6.4 19.3 0.00 0.00 0.00 51 1003.2
20260504230603 7 99 0.0 17.7 0.00 0.00 0.00 50 1003.4
20260504230101 6 120 4.8 22.5 0.00 0.00 0.00 53 1003.4
20260504225601 6 180 6.4 22.5 0.00 0.00 0.00 53 1003.3
20260504225100 6 173 3.2 22.5 0.00 0.00 0.00 52 1003.2
20260504224602 6 110 6.4 24.1 0.00 0.00 0.00 53 1003.3
20260504224101 7 99 6.4 30.6 0.00 0.00 0.00 52 1002.9
20260504223601 6 150 3.2 30.6 0.00 0.00 0.00 52 1003.0
20260504222601 5 134 6.4 20.9 0.00 0.00 0.00 54 1003.1
20260504222100 6 95 0.0 20.9 0.00 0.00 0.00 52 1003.1
20260504221601 6 135 9.7 20.9 0.00 0.00 0.00 52 1003.0
20260504220601 6 110 4.8 19.3 0.00 0.00 0.00 52 1002.9
20260504220101 6 138 8.0 19.3 0.00 0.00 0.00 51 1002.9
20260504215602 6 93 4.8 19.3 0.00 0.00 0.00 50 1002.9
20260504215101 6 155 4.8 20.9 0.00 0.00 0.00 51 1002.9
20260504214601 6 75 11.3 20.9 0.00 0.00 0.00 51 1002.9
20260504213101 6 153 6.4 19.3 0.00 0.00 0.00 52 1002.7
20260504212600 6 140 1.6 14.5 0.00 0.00 0.00 52 1002.7
20260504212102 6 199 4.8 17.7 0.00 0.00 0.00 51 1002.8
20260504211606 6 119 6.4 22.5 0.00 0.00 0.00 52 1002.6
20260504211105 6 162 8.0 22.5 0.00 0.00 0.00 52 1002.3
20260504205603 6 164 8.0 16.1 0.00 0.00 0.00 51 1002.2
20260504204105 6 166 6.4 19.3 0.00 0.00 0.00 50 1002.3
20260504203104 6 154 6.4 20.9 0.00 0.00 0.00 49 1002.2
20260504202600 8 81 16.1 19.3 0.00 0.00 0.00 50 1002.1
20260504202100 7 158 6.4 17.7 0.00 0.00 0.00 47 1002.3
20260504201601 7 104 3.2 17.7 0.00 0.00 0.00 50 1002.2
20260504201101 6 155 4.8 22.5 0.00 0.00 0.00 51 1002.2
20260504200603 6 66 9.7 22.5 0.00 0.00 0.00 53 1002.2
20260504195602 6 96 4.8 27.4 0.00 0.00 0.00 55 1002.2
20260504195101 5 111 14.5 27.4 0.00 0.00 0.00 53 1001.9
20260504194601 7 103 3.2 25.7 0.00 0.00 0.00 53 1002.0
20260504194103 6 156 11.3 25.7 0.00 0.00 0.00 54 1002.1
20260504193601 5 138 8.0 25.7 0.00 0.00 0.00 56 1002.2
20260504193103 5 148 11.3 25.7 0.00 0.00 0.00 58 1002.2
20260504192601 5 138 8.0 22.5 0.00 0.00 0.00 58 1002.2
20260504191600 5 131 4.8 20.9 0.00 0.00 0.00 61 1002.1
20260504191103 4 124 6.4 24.1 0.00 0.00 0.00 61 1002.1
20260504190601 4 174 8.0 24.1 0.00 0.00 0.00 62 1002.2
20260504185600 5 139 6.4 24.1 0.00 0.00 0.00 62 1002.0
20260504185100 5 151 6.4 24.1 0.00 0.00 0.00 62 1001.8
20260504184602 5 149 4.8 19.3 0.00 0.00 0.00 64 1001.9
20260504183605 5 127 3.2 17.7 0.00 0.00 0.00 62 1001.7
20260504183103 5 144 6.4 27.4 0.00 0.00 0.00 62 1001.6
20260504182604 5 120 4.8 27.4 0.00 0.00 0.00 67 1001.6
20260504182103 5 155 6.4 22.5 0.00 0.00 0.00 65 1001.7
20260504181604 5 49 1.6 19.3 0.00 0.00 0.00 65 1001.1
20260504181104 5 133 4.8 20.9 0.00 0.00 0.00 66 1001.4
20260504175604 5 166 6.4 14.5 0.00 0.00 0.00 66 1000.9
20260504174602 5 154 9.7 30.6 0.00 0.00 0.00 70 1001.2
20260504174102 4 125 6.4 30.6 0.00 0.00 0.00 71 1001.1
20260504173604 4 133 3.2 17.7 0.00 0.00 0.00 73 1001.2
20260504172601 4 134 6.4 24.1 0.00 0.00 0.00 72 1001.4
20260504172101 3 144 6.4 27.4 0.00 0.00 0.00 75 1001.1
20260504171102 4 125 6.4 16.1 0.00 0.00 0.00 73 1000.8
20260504170601 4 158 6.4 29.0 0.00 0.00 0.00 76 1000.8
20260504151100 4 90 1.6 12.9 0.00 0.00 0.00 78 999.6
20260504150559 3 109 3.2 14.5 0.00 0.00 0.00 80 999.5
20260504140537 3 169 9.7 17.7 0.00 0.00 0.00 84 998.3
20260504130531 4 197 4.8 11.3 0.00 0.00 0.00 87 997.3
20260504110511 6 192 0.0 9.7 0.00 0.00 0.00 89 994.7